{"data":{"norad_id":58468,"intl_designator":"2023-185G","name":"SPIRIT","alt_names":[],"object_type":"PAYLOAD","status":"ACTIVE","operator":null,"country":"AUS","launch_date":"2023-12-01","launch_site_code":"AFWTR","launch_vehicle":null,"mission":null,"orbit_class":"UNKNOWN","rcs_meters":null,"size_class":null,"mass_kg":null,"dimensions":null,"purposes":[],"wikipedia_slug":null,"has_3d_model":false,"image_url":null,"decayed_at":null,"tle_current":{"epoch":"2026-05-24T13:02:13.916832Z","epoch_age_seconds":114232,"freshness":"FRESH","line1":"1 58468U 23185G   26144.54321663  .00124146  00000+0  77189-3 0  9999","line2":"2 58468  97.3295 228.0597 0004915 233.9624 126.1186 15.76598859138841","mean_motion":15.76598859,"eccentricity":0.0004915,"inclination_deg":97.3295,"raan_deg":228.0597,"arg_perigee_deg":233.9624,"mean_anomaly_deg":126.1186,"bstar":0.00077189,"rev_number":13884,"period_min":91.335851968925,"perigee_km":336.78328155907,"apogee_km":343.38729406799,"semimajor_km":6718.2222878135,"source":"CELESTRAK","updated_at":"2026-05-25T13:38:00.765955Z"}}}